This is the latest recevied weather packets stored in our database for station/object EA6AMI-5. If no packets are shown the sender has not sent any weather packets the latest 10 day(s).
| Time | Temp. | Humidity | Pressure | Rain* | Wind** | Luminosity | Snow |
|---|---|---|---|---|---|---|---|
| 1777528444 | 15.56° C | 90% | 1015.2 hPa | 0 mm | - | 25 W/m² | - |
| 1777527904 | 15.56° C | 90% | 1015.2 hPa | 0 mm | - | 20 W/m² | - |
| 1777527363 | 15.56° C | 89% | 1015.1 hPa | 0 mm | - | 13 W/m² | - |
| 1777526823 | 15.56° C | 90% | 1014.9 hPa | 0 mm | - | 13 W/m² | - |
| 1777526283 | 15.56° C | 90% | 1014.6 hPa | 0 mm | - | 10 W/m² | - |
| 1777525744 | 15.56° C | 90% | 1014.5 hPa | 0 mm | - | 6 W/m² | - |
| 1777525203 | 15.56° C | 90% | 1014.5 hPa | 0 mm | - | 3 W/m² | - |
| 1777524843 | 15.56° C | 90% | 1014.3 hPa | 0 mm | - | 1 W/m² | - |
| 1777524304 | 15.56° C | 90% | 1014.1 hPa | 0 mm | - | 0 W/m² | - |
| 1777523764 | 15.56° C | 90% | 1014.2 hPa | 0 mm | - | 0 W/m² | - |
| 1777523223 | 15.56° C | 91% | 1014.1 hPa | 0 mm | - | 0 W/m² | - |
| 1777522683 | 15.56° C | 91% | 1013.8 hPa | 0 mm | - | 0 W/m² | - |
| 1777522143 | 15.56° C | 90% | 1013.7 hPa | 0 mm | - | 0 W/m² | - |
| 1777521603 | 15.56° C | 91% | 1013.8 hPa | 0 mm | - | 0 W/m² | - |
| 1777521243 | 15.56° C | 91% | 1013.8 hPa | 0 mm | - | 0 W/m² | - |
| 1777520703 | 15.56° C | 91% | 1013.8 hPa | 0 mm | - | 0 W/m² | - |
| 1777520163 | 15.56° C | 91% | 1013.7 hPa | 0 mm | - | 0 W/m² | - |
| 1777519624 | 15.56° C | 91% | 1013.8 hPa | 0 mm | - | 0 W/m² | - |
| 1777519084 | 15.56° C | 91% | 1013.9 hPa | 0 mm | - | 0 W/m² | - |
| 1777518544 | 15.56° C | 90% | 1013.9 hPa | 0 mm | - | 0 W/m² | - |
| 1777518003 | 16.11° C | 91% | 1014 hPa | 0 mm | - | 0 W/m² | - |
| 1777517643 | 16.11° C | 92% | 1013.9 hPa | 0 mm | - | 0 W/m² | - |
| 1777517103 | 15.56° C | 92% | 1014.2 hPa | 0 mm | - | 0 W/m² | - |
| 1777516563 | 15° C | 91% | 1014.1 hPa | 0 mm | - | 0 W/m² | - |
| 1777516024 | 14.44° C | 90% | 1014.2 hPa | 0 mm | - | 0 W/m² | - |
* Rain latest hour (hover to see other rain measurements)
** Current wind speed in m/s (hover to see current wind gust speed)